This is the latest recevied weather packets stored in our database for station/object KC1OEK-13. If no packets are shown the sender has not sent any weather packets the latest 10 day(s).
| Time | Temp. | Humidity | Pressure | Rain* | Wind** | Luminosity | Snow |
|---|---|---|---|---|---|---|---|
| 1787876428 | 21.11° C | 92% | 1018.2 hPa | 0 mm | - | 0 W/m² | - |
| 1787876127 | 21.11° C | 92% | 1018.2 hPa | 0 mm | - | 0 W/m² | - |
| 1787875822 | 21.11° C | 91% | 1018 hPa | 0 mm | - | 0 W/m² | - |
| 1787875520 | 21.67° C | 91% | 1018.2 hPa | 0 mm | - | 0 W/m² | - |
| 1787875215 | 21.67° C | 90% | 1018.1 hPa | 0 mm | - | 0 W/m² | - |
| 1787874914 | 21.67° C | 90% | 1017.9 hPa | 0 mm | - | 0 W/m² | - |
| 1787874609 | 21.67° C | 90% | 1017.8 hPa | 0 mm | - | 0 W/m² | - |
| 1787874303 | 21.67° C | 89% | 1017.8 hPa | 0 mm | - | 1 W/m² | - |
| 1787874003 | 21.67° C | 89% | 1017.5 hPa | 0 mm | - | 1 W/m² | - |
| 1787873702 | 22.22° C | 88% | 1017.2 hPa | 0 mm | - | 2 W/m² | - |
| 1787873396 | 22.22° C | 88% | 1017.5 hPa | 0 mm | - | 4 W/m² | - |
| 1787873091 | 22.22° C | 87% | 1017.3 hPa | 0 mm | - | 9 W/m² | - |
| 1787872785 | 22.78° C | 87% | 1017.4 hPa | 0 mm | - | 12 W/m² | - |
| 1787872481 | 22.78° C | 87% | 1017.2 hPa | 0 mm | - | 17 W/m² | - |
| 1787872176 | 22.78° C | 86% | 1017.4 hPa | 0 mm | - | 23 W/m² | - |
| 1787871875 | 22.78° C | 86% | 1017.6 hPa | 0 mm | - | 28 W/m² | - |
| 1787871570 | 22.78° C | 86% | 1017.5 hPa | 0 mm | - | 34 W/m² | - |
| 1787871266 | 22.78° C | 85% | 1017.6 hPa | 0 mm | - | 43 W/m² | - |
| 1787870960 | 22.78° C | 85% | 1017.6 hPa | 0 mm | - | 35 W/m² | - |
| 1787870655 | 23.33° C | 84% | 1017.7 hPa | 0 mm | - | 46 W/m² | - |
| 1787870349 | 23.33° C | 84% | 1017.7 hPa | 0 mm | - | 41 W/m² | - |
| 1787870045 | 23.33° C | 84% | 1017.6 hPa | 0 mm | - | 40 W/m² | - |
| 1787869744 | 23.89° C | 82% | 1017.4 hPa | 0 mm | - | 54 W/m² | - |
| 1787869443 | 24.44° C | 80% | 1017.3 hPa | 0 mm | - | 65 W/m² | - |
| 1787869138 | 24.44° C | 80% | 1017.3 hPa | 0 mm | - | 78 W/m² | - |
* Rain latest hour (hover to see other rain measurements)
** Current wind speed in m/s (hover to see current wind gust speed)